Regional Weather Roundup
Issued by NWS Wakefield, VA

Home | Current Version | Previous Version | Graphics & Text | Print | Product List | Glossary Off
Versions: 1 2 3 4 5 6 7 8 9 10 11 12 13 14 15 16 17 18 19 20 21 22 23 24 25 26 27

000
ASUS41 KAKQ 241915
RWRAKQ

REGIONAL WEATHER ROUNDUP
NATIONAL WEATHER SERVICE WAKEFIELD VA
200 PM EST FRI NOV 24 2017

Note: "fair" indicates few or no clouds below 12,000 feet with no
significant weather and/or obstructions to visibility. * = Denotes
station may not report precipitation (e.g., rain,snow,etc.),
thunder or fog.

VAZ042-051-052>054-056-242000-
NORTHERN VIRGINIA

CITY           SKY/WX    TMP DP  RH WIND       PRES   REMARKS
WASH NATIONAL  MOSUNNY   52  33  48 S8        30.00F
DULLES         SUNNY     54  28  36 S8        29.98F
FORT BELVOIR   SUNNY     52  28  38 SW8       30.00F
QUANTICO       SUNNY     51  37  58 S8        30.01F
FREDERICKSBRG* SUNNY     55  30  39 S3        29.99F
STAFFORD*      SUNNY     53  27  36 S6        30.03F
WARRENTON      NOT AVBL
CULPEPER*      SUNNY     55  26  32 S5        29.99F
MANASSAS*      SUNNY     54  28  36 S6        29.98F
LEESBURG*      SUNNY     55  32  41 S8        29.98F
WINCHESTER     SUNNY     54  25  32 S8        29.94F
FRONT ROYAL*   CLEAR     55  25  30 CALM      29.93F
LURAY*         CLEAR     57  27  30 S3        29.94F
$$

VAZ048-049-060>072-079>083-242000-
CENTRAL AND SOUTH CENTRAL VIRGINIA

CITY           SKY/WX    TMP DP  RH WIND       PRES   REMARKS
RICHMOND       MOSUNNY   55  26  32 CALM      30.00F
CHESTERFIELD*  NOT AVBL
PETERSBURG*    SUNNY    N/A N/A N/A CALM      30.01F
HANOVER        SUNNY     54  23  30 SW5       30.01F
TAPPAHANNOCK*    N/A    N/A N/A N/A MISG        N/A
QUINTON*       FAIR      53  26  34 SW3       30.00F
CHARLOTTSVILLE SUNNY     55  26  32 S10       29.97F
GORDONSVILLE*  CLEAR     53  29  38 S6        29.97F
ORANGE*        SUNNY     54  28  37 SW6       29.98F
LOUISA*        SUNNY     53  27  36 S6        30.02F
BUMPASS*       FAIR      54  27  35 SW3       29.99F
FARMVILLE*     SUNNY     57  32  38 S6        29.98F
CREWE*         FAIR      54  28  35 SE3       29.99F
FORT PICKETT*  FAIR      54  22  28 NW5       29.99F
CHASE CITY*    FAIR      55  25  32 CALM      29.99F
CLARKSVILLE*   FAIR      52  25  35 CALM      29.99F
SOUTH HILL*    SUNNY     53  26  34 CALM      30.05F
LAWRENCEVILLE* FAIR      54  24  31 CALM      30.00S
EMPORIA*       SUNNY     54  28  37 CALM      30.02F
$$

VAZ088>098-242000-
SOUTHEAST VIRGINIA

CITY           SKY/WX    TMP DP  RH WIND       PRES   REMARKS
NORFOLK        SUNNY     52  38  58 N8        30.01F
VIRGINIA BEACH MOSUNNY   52  35  52 NE8       30.01S
NORFOLK NAVAL  MOSUNNY   52  36  54 NE8       30.03F
WEST POINT*    SUNNY     53  26  34 CALM      30.02F
SALUDA*        FAIR      49  34  54 E6        30.01F
NEWPORT NEWS   SUNNY     51  28  41 E7        30.02S
LANGLEY AFB    SUNNY     51  35  54 NE5       30.02S
FORT EUSTIS    SUNNY     54  29  39 E8        29.99S
WILLIAMSBURG*  SUNNY     57  30  35 CALM      30.02S
HR EXEC AP*    NOT AVBL
FRANKLIN*      SUNNY     55  28  35 E5        30.01F
US460-WAKEFLD  SUNNY     54  29  38 E3        30.01F
$$

VAZ020-022-025-037-045-242000-
WEST CENTRAL AND SOUTHWEST VIRGINIA

CITY           SKY/WX    TMP DP  RH WIND       PRES   REMARKS
STAUNTON*      SUNNY     55  22  27 S8        29.96F
WAYNESBORO*    CLEAR     54  23  29 E9G20     29.95S
HOT SPRINGS VA SUNNY     49   4  15 CALM      29.94F
LYNCHBURG      SUNNY     53  21  28 VRB5      29.97F
DANVILLE       SUNNY     55  32  41 CALM      29.99F
SOUTH BOSTON*  FAIR      55  26  32 CALM      29.99F
MARTINSVILLE   SUNNY     58  24  26 CALM      29.98F
ROANOKE        SUNNY     57  26  30 SE5       29.97F
BLACKSBURG     SUNNY     56  22  27 CALM      29.97F
DUBLIN*        SUNNY     58  20  23 SW6       29.95F
MARION*        SUNNY     59  20  22 CALM      29.95F
HILLSVILLE*    SUNNY     56  11  17 SW6       29.93F
RICHLANDS*     FAIR      57  21  24 CALM      29.93F
WISE*          SUNNY     59  32  36 SW6       29.94F
ABINGDON*      SUNNY     58  32  37 SW3       29.94F
$$

MDZ021>025-VAZ099-100-242000-
SOUTHERN MARYLAND AND THE DELMARVA PENINSULA

CITY           SKY/WX    TMP DP  RH WIND       PRES   REMARKS
PATUXENT RIVER SUNNY     50  35  56 SE8       30.01F
BAY BRIDGE APT SUNNY     52  32  46 SE9       30.01F
LEONARDTOWN    SUNNY     50  27  40 CALM      30.02F
DOVER          SUNNY     52  37  55 SW5       30.00F
GEORGETOWN     SUNNY     52  27  38 S6        30.01F
EASTON         SUNNY     54  30  40 SW6       30.04F
CAMBRIDGE      SUNNY     52  32  46 VRB7      30.01F
SALISBURY      SUNNY     52  27  38 CALM      30.01F
OCEAN CITY     SUNNY     48  34  58 SE6       30.03F
WALLOPS ISLAND SUNNY     50  28  42 E8        30.02F
ACCOMACK*      SUNNY     53  33  46 SE7       30.01F
$$

NCZ012>017-030>032-242000-
NORTH CENTRAL AND EASTERN NORTH CAROLINA

CITY           SKY/WX    TMP DP  RH WIND       PRES   REMARKS
ROANOKE RAPIDS FAIR      55  27  33 CALM      30.01S
RALEIGH        MOSUNNY   55  24  30 VRB5      29.99F
ELIZABETH CITY MOSUNNY   54  41  61 NE12      30.00F
AHOSKIE*       SUNNY     54  30  39 NE3       30.00F
EDENTON*       MOSUNNY   56  42  58 CALM      30.00F
CURRITUCK*     MOSUNNY   52  39  60 NE8       30.01F
KILL DEVIL HLS MOSUNNY   54  42  64 NE6       29.97F
MANTEO         MOSUNNY   54  44  68 NE10      29.98F
CAPE HATTERAS  CLOUDY    60  52  74 NE9       29.94F
TARBORO*       NOT AVBL
GOLDSBORO      SUNNY     57  29  34 NE7       29.96F
WASHINGTON     SUNNY     57  35  42 E7        29.98F
GREENVILLE     SUNNY     55  32  41 N3        30.00F
NEW BERN       MOSUNNY   53  42  66 NE8       29.97F
WILMINGTON     CLOUDY    58  37  45 N9        29.94F
$$

VAZ048-242000-
ELSEWHERE

CITY           SKY/WX    TMP DP  RH WIND       PRES   REMARKS
HARRISBURG PA  SUNNY     53  24  32 SW5       29.95F
BALTIMORE      MOSUNNY   53  26  35 SW6       29.98F
ANNAPOLIS      SUNNY     49  39  68 SE10      30.00F
ANDREWS AFB    SUNNY     54  24  31 S6        29.98F
PHILADELPHIA   SUNNY     51  25  36 SW7       30.00F
HENDERSON NC   SUNNY     54  22  29 CALM      29.99F
GREENSBORO     SUNNY     55  32  41 CALM      29.96F
ROCKY MOUNT    SUNNY     55  25  31 N7        30.00F
$$

VAZ100-242000-
MARINE

STATION/POSITION TIME  TEMP    WIND        PRES    WAVE   SWELL
                       AIR SEA DIR/SP/G            HT/PER HT/PER
                 (UTC) (F)     (DEG/KT/KT) (MB)    (FT/S) (FT/S)
BRANDYWINE LGT   1842   47     130/  3/  4 1016.8F
CAPE MAY NJ      1848   47 50  250/  3/  4 1016.0F
LEWES DE         1842   48 50   90/  8/  9 1016.1F
15NM E FENWICK I 1850   48 58  340/  2/  4 1017.0F   3/10   3/10
OCEAN-CITY-INLET 1842   47 52   90/  4/  5 1017.0F
WACHAPREAGUE VA  1842   47 49   70/  7/  9 1016.5F
THOMAS POINT MD  1900   47 51  160/ 10/ 10   N/A
GOOSES REEF MD   1850   48     140/ 10/ 12 1017.9F
COVE POINT MD    1842   46     170/ 10/ 11 1016.9F
SOLOMONS ISLAND  1842   48 53  120/  9/ 10 1015.8F
BISHOPS HEAD MD  1842   46 48  280/  3/  4 1016.8F
PINEY POINT MD   1842          140/  5/  6   N/A
POTOMAC MD       1850   47     120/  4/  6 1015.8F
CAMBRIDGE MD     1842   52 49              1016.8F
LEWISETTA VA     1842   46 49   90/  5/  6 1016.3F
RAPPAHANNOCK LGT 1842          350/  6/  7 1017.0F
STINGRAY PT      1850   47      60/  4/  6 1016.8F
YORK RVR RNG VA  1842   49      90/  4/  5 1017.1F
YORKTOWN VA      1842   49 53  110/  8/  9 1016.2F
JAMESTOWN VA     1850          240/  2/  4   N/A
DOMINION TERM VA 1842   51      90/  2/  6 1016.6F
KIPTOPEKE VA     1842      53   70/  5/  7   N/A
CAPE HENRY VA    1842   49      40/  8/ 10   N/A
WILLOUBY STN VA  1842   47      40/  7/  8 1016.4F
S CRANEY ISL VA  1842   49      50/  6/ 10 1016.2F
CAPE HENRY BUOY  1900      59                N/A     3/11   2/11
1ST LANDING BUOY 1850   50      60/  6/ 10 1016.5F
CAPE CHARLES BUO 1851      58                N/A     3/11   2/11
64NM E OF VA BCH 1850   54 60   50/  8/ 12 1015.8F   5/10   5/10
DUCK PIER NC     1842   53 57   40/ 11/ 13 1015.1F
44100 DUCK FRF   1845      60                N/A     4/ 9   2/11
44056 DUCK FRF   1900      59                N/A     4/11   2/11
OREGON INLET NC  1842   56 55   30/  9/ 13 1014.5F
HATTERAS NC      1842   56 56   20/ 12/ 14 1013.5F
DIAMOND SHLS NC  1900   63 72   30/ 19/ 23 1012.9
CAPE LOOKOUT NC  1900           20/ 15/ 20 1013.7F
$$




USA.gov is the U.S. government's official web portal to all federal, state and local government web resources and services.